EW1617 Weather Reports


Display with metric or nautical units.
time (UTC)temp
F
wind
direction
speed
MPH
gust
MPH
rain 1hr
in
rain 24hr
in
rain mn
in
humidity
%
barometer
mb
20260503032507 65 90 0.0 0.0 0.00 0.00 0.00 92 1012.2
20260503032007 65 90 0.0 0.0 0.00 0.00 0.00 92 1012.2
20260503031507 65 90 2.0 5.0 0.00 0.00 0.00 91 1012.2
20260503031007 65 180 3.0 7.0 0.00 0.00 0.00 91 1012.1
20260503030507 66 144 5.0 7.0 0.00 0.00 0.00 91 1011.9
20260503030007 66 153 6.0 9.0 0.00 0.00 0.00 90 1012.2
20260503025507 66 171 7.0 9.0 0.00 0.00 0.00 90 1012.2
20260503025007 66 144 8.0 9.0 0.00 0.00 0.00 89 1012.2
20260503024507 67 135 8.0 11.0 0.00 0.00 0.00 87 1012.2
20260503024007 67 180 7.0 9.0 0.00 0.00 0.00 86 1012.2
20260503023506 67 144 8.0 10.0 0.00 0.00 0.00 84 1012.2
20260503023007 68 135 8.0 9.0 0.00 0.00 0.00 81 1012.2
20260503022508 69 99 8.0 9.0 0.00 0.00 0.00 79 1012.2
20260503022007 70 153 10.0 11.0 0.00 0.00 0.00 75 1011.9
20260503021506 70 117 8.0 9.0 0.00 0.00 0.00 73 1011.9
20260503021007 71 135 7.0 9.0 0.00 0.00 0.00 71 1011.9
20260503020507 71 108 8.0 9.0 0.00 0.00 0.00 71 1011.6
20260503020007 71 144 8.0 10.0 0.00 0.00 0.00 68 1011.4
20260503015506 72 113 8.0 9.0 0.00 0.00 0.00 65 1011.2
20260503015007 73 146 7.0 8.0 0.00 0.00 0.00 63 1011.2
20260503014507 74 144 2.0 5.0 0.00 0.00 0.00 63 1010.9
20260503014007 74 180 0.0 1.0 0.00 0.00 0.00 64 1011.0
20260503013507 74 180 1.0 4.0 0.00 0.00 0.00 62 1011.0
20260503013007 74 99 1.0 3.0 0.00 0.00 0.00 59 1010.9
20260503012506 74 63 1.0 4.0 0.00 0.00 0.00 61 1011.0
20260503012007 74 108 2.0 5.0 0.00 0.00 0.00 60 1010.8
20260503011507 75 171 3.0 5.0 0.00 0.00 0.00 59 1010.8
20260503011007 75 158 2.0 4.0 0.00 0.00 0.00 59 1010.8
20260503010507 75 0 0.0 5.0 0.00 0.00 0.00 58 1010.8
20260503010007 75 72 6.0 7.0 0.00 0.00 0.00 56 1010.8
20260503005507 76 198 2.0 3.0 0.00 0.00 0.00 56 1010.8
20260503005008 76 181 3.0 6.0 0.00 0.00 0.00 56 1010.8
20260503004506 76 306 1.0 4.0 0.00 0.00 0.00 55 1010.9
20260503004007 77 307 5.0 9.0 0.00 0.00 0.00 54 1011.2
20260503003507 78 198 5.0 8.0 0.00 0.00 0.00 53 1011.0
20260503003006 78 306 2.0 6.0 0.00 0.00 0.00 52 1010.8
20260503002507 78 153 4.0 6.0 0.00 0.00 0.00 52 1010.8
20260503002007 78 153 5.0 7.0 0.00 0.00 0.00 53 1010.9
20260503001507 78 90 1.0 5.0 0.00 0.00 0.00 54 1011.1
20260503001007 77 135 5.0 8.0 0.00 0.00 0.00 53 1011.2
20260503000507 77 99 5.0 8.0 0.00 0.00 0.00 55 1011.2
20260503000007 76 117 4.0 7.0 0.00 0.00 0.00 56 1011.2
20260502235507 76 63 1.0 3.0 0.00 0.00 0.00 56 1011.2
20260502235006 76 253 6.0 8.0 0.00 0.00 0.00 55 1011.2
20260502234507 76 90 1.0 2.0 0.00 0.00 0.00 56 1011.3
20260502234007 76 189 5.0 7.0 0.00 0.00 0.00 55 1011.5
20260502233507 75 99 4.0 6.0 0.00 0.00 0.00 57 1011.5
20260502233007 75 171 6.0 7.0 0.00 0.00 0.00 55 1011.6
20260502232507 75 171 5.0 7.0 0.00 0.00 0.00 55 1011.7
20260502232008 75 253 6.0 7.0 0.00 0.00 0.00 55 1011.8
20260502231507 75 144 4.0 6.0 0.00 0.00 0.00 57 1011.9
20260502231007 75 171 5.0 7.0 0.00 0.00 0.00 56 1011.9
20260502230507 75 153 5.0 5.0 0.00 0.00 0.00 57 1011.9
20260502230007 75 225 5.0 7.0 0.00 0.00 0.00 56 1011.9
20260502225507 75 72 5.0 7.0 0.00 0.00 0.00 57 1012.2
20260502225006 74 254 4.0 7.0 0.00 0.00 0.00 58 1012.2
20260502224507 74 209 5.0 7.0 0.00 0.00 0.00 56 1012.2
20260502224007 75 270 3.0 5.0 0.00 0.00 0.00 55 1012.3
20260502223507 75 108 2.0 5.0 0.00 0.00 0.00 56 1012.5
20260502223007 75 279 2.0 5.0 0.00 0.00 0.00 55 1012.5
20260502222507 75 261 4.0 7.0 0.00 0.00 0.00 57 1012.5
20260502222007 75 99 5.0 7.0 0.00 0.00 0.00 57 1012.5
20260502221507 74 225 6.0 8.0 0.00 0.00 0.00 58 1012.8
20260502221007 73 162 3.0 5.0 0.00 0.00 0.00 61 1012.9
20260502220507 72 162 3.0 5.0 0.00 0.00 0.00 60 1012.9
20260502220007 72 108 3.0 7.0 0.00 0.00 0.00 61 1012.9
20260502215507 73 153 6.0 8.0 0.00 0.00 0.00 57 1013.0
20260502215007 73 198 4.0 8.0 0.00 0.00 0.00 58 1013.2
20260502214506 73 261 4.0 8.0 0.00 0.00 0.00 60 1013.2
20260502214008 72 271 6.0 7.0 0.00 0.00 0.00 60 1013.2
20260502213506 73 270 5.0 6.0 0.00 0.00 0.00 59 1013.2
20260502213007 73 180 5.0 7.0 0.00 0.00 0.00 59 1013.3
20260502212507 72 191 6.0 7.0 0.00 0.00 0.00 61 1013.6
20260502212007 71 207 5.0 7.0 0.00 0.00 0.00 61 1013.6
20260502211506 71 181 6.0 9.0 0.00 0.00 0.00 61 1013.6
20260502211007 71 271 6.0 10.0 0.00 0.00 0.00 62 1013.7
20260502210507 71 198 5.0 6.0 0.00 0.00 0.00 64 1013.8
20260502210007 70 117 3.0 6.0 0.00 0.00 0.00 64 1013.9
20260502205507 70 117 5.0 8.0 0.00 0.00 0.00 67 1014.1
20260502205007 69 153 6.0 7.0 0.00 0.00 0.00 67 1014.2
20260502204506 69 36 5.0 5.0 0.00 0.00 0.00 68 1014.2
20260502204007 69 126 5.0 7.0 0.00 0.00 0.00 67 1014.3
20260502203507 69 216 6.0 7.0 0.00 0.00 0.00 66 1014.5
20260502203007 68 180 6.0 7.0 0.00 0.00 0.00 68 1014.6
20260502202507 67 90 5.0 6.0 0.00 0.00 0.00 72 1014.5
20260502202008 66 270 3.0 7.0 0.00 0.00 0.00 75 1014.6
20260502201507 65 189 3.0 7.0 0.00 0.00 0.00 77 1014.7
20260502201007 65 270 4.0 6.0 0.00 0.00 0.00 76 1014.8
20260502200506 65 200 3.0 5.0 0.00 0.00 0.00 75 1014.6
20260502200007 66 90 2.0 6.0 0.00 0.00 0.00 75 1014.9
20260502195507 66 126 5.0 8.0 0.00 0.00 0.00 73 1014.9
20260502195007 66 308 5.0 7.0 0.00 0.00 0.00 75 1014.9
20260502194506 65 189 5.0 7.0 0.00 0.00 0.00 74 1014.9
20260502194007 65 199 5.0 8.0 0.00 0.00 0.00 76 1014.9
20260502193507 65 162 6.0 7.0 0.00 0.00 0.00 76 1015.0
20260502193007 64 180 6.0 7.0 0.00 0.00 0.00 80 1015.2
20260502192506 64 180 7.0 8.0 0.00 0.00 0.00 81 1015.2
20260502192008 64 126 6.0 8.0 0.00 0.00 0.00 82 1015.3
20260502191507 63 81 6.0 7.0 0.00 0.00 0.00 81 1015.6
20260502191007 63 198 6.0 7.0 0.00 0.00 0.00 83 1015.6
20260502190506 63 189 6.0 7.0 0.00 0.00 0.00 83 1015.6
20260502190007 63 253 3.0 6.0 0.00 0.00 0.00 85 1015.6
20260502185507 62 45 2.0 5.0 0.00 0.00 0.00 87 1015.6
20260502185007 61 171 5.0 5.0 0.00 0.00 0.00 88 1015.6
20260502184507 61 127 5.0 7.0 0.00 0.00 0.00 90 1015.6
20260502184007 61 126 5.0 6.0 0.00 0.00 0.00 91 1015.6
20260502183506 60 135 3.0 6.0 0.00 0.00 0.00 92 1015.6
20260502183007 59 72 2.0 5.0 0.00 0.00 0.00 93 1015.6
20260502182507 59 136 3.0 5.0 0.00 0.00 0.00 93 1015.6
20260502182008 59 270 0.0 5.0 0.00 0.00 0.00 93 1015.9
20260502181507 58 270 1.0 5.0 0.00 0.00 0.00 93 1015.9
20260502181008 58 204 3.0 4.0 0.00 0.00 0.00 93 1015.9
20260502180507 58 279 4.0 6.0 0.00 0.00 0.00 93 1015.9
20260502170506 55 0 2.0 5.0 0.00 0.00 0.00 95 1016.3
20260502164006 55 227 4.0 5.0 0.00 0.00 0.00 95 1016.3
20260502163507 55 181 4.0 5.0 0.00 0.00 0.00 95 1016.3
20260502163007 54 180 2.0 5.0 0.00 0.00 0.00 95 1016.3
20260502162507 54 298 5.0 6.0 0.00 0.00 0.00 96 1016.3
20260502162007 54 225 2.0 5.0 0.00 0.00 0.00 96 1016.3
20260502161507 54 261 3.0 5.0 0.00 0.00 0.00 96 1016.3
20260502161007 54 315 2.0 8.0 0.00 0.00 0.00 96 1016.3
20260502160507 54 306 2.0 5.0 0.00 0.00 0.00 96 1016.3
20260502152007 53 288 1.0 3.0 0.00 0.00 0.00 96 1016.5
20260502151507 53 243 1.0 2.0 0.00 0.00 0.00 96 1016.6
20260502151007 53 0 0.0 1.0 0.00 0.00 0.00 96 1016.6
20260502150507 53 45 2.0 4.0 0.00 0.00 0.00 96 1016.6
20260502130507 51 90 3.0 6.0 0.00 0.00 0.00 97 1016.3
20260502123507 51 315 0.0 1.0 0.00 0.00 0.00 97 1016.3
20260502123007 51 0 5.0 5.0 0.00 0.00 0.00 97 1016.3
20260502122008 51 318 5.0 5.0 0.00 0.00 0.00 97 1016.1
20260502121507 51 340 2.0 3.0 0.00 0.00 0.00 97 1016.3
20260502121006 51 250 1.0 1.0 0.00 0.00 0.00 97 1016.0
20260502115007 51 225 1.0 5.0 0.00 0.00 0.00 97 1016.3
20260502113508 51 315 5.0 5.0 0.00 0.00 0.00 97 1016.3
20260502113006 51 90 1.0 1.0 0.00 0.00 0.00 97 1016.3
20260502104507 51 90 0.0 4.0 0.00 0.00 0.00 97 1016.3
20260502070507 55 0 0.0 0.0 0.00 0.00 0.00 93 1016.9
20260502070007 55 332 1.0 2.0 0.00 0.00 0.00 93 1016.9
20260502065506 55 315 0.0 0.0 0.00 0.00 0.00 93 1016.9
20260502065007 55 315 1.0 1.0 0.00 0.00 0.00 93 1016.9
20260502064507 55 270 0.0 1.0 0.00 0.00 0.00 93 1017.1
20260502064007 55 348 1.0 1.0 0.00 0.00 0.00 93 1016.9
20260502063506 55 0 0.0 0.0 0.00 0.00 0.00 93 1016.9
20260502063007 55 315 0.0 0.0 0.00 0.00 0.00 93 1016.9
20260502054506 57 225 0.0 0.0 0.00 0.00 0.00 92 1016.6
20260502054007 57 225 1.0 3.0 0.00 0.00 0.00 92 1016.6
20260502053507 57 225 0.0 1.0 0.00 0.00 0.00 92 1016.6
20260502053007 57 279 3.0 5.0 0.00 0.00 0.00 92 1016.6
20260502052507 58 244 4.0 6.0 0.00 0.00 0.00 92 1016.6
20260502052007 58 207 3.0 7.0 0.00 0.00 0.00 91 1016.6
20260502051507 58 365 0.0 0.0 0.00 0.00 0.00 91 1016.3
20260502051007 58 235 2.0 5.0 0.00 0.00 0.00 91 1016.3
20260502050507 59 288 1.0 2.0 0.00 0.00 0.00 92 1016.3
20260502050007 59 297 3.0 5.0 0.00 0.00 0.00 91 1016.3
20260502045507 59 289 2.0 5.0 0.00 0.00 0.00 90 1016.3
20260502045006 60 270 1.0 4.0 0.00 0.00 0.00 90 1016.3
20260502044507 60 145 1.0 2.0 0.00 0.00 0.00 90 1016.3
20260502044007 60 0 0.0 1.0 0.00 0.00 0.00 90 1016.3
20260502043508 60 90 0.0 1.0 0.00 0.00 0.00 90 1016.3
20260502043006 61 0 0.0 1.0 0.00 0.00 0.00 89 1016.3
20260502042507 61 0 0.0 0.0 0.00 0.00 0.00 86 1016.3
20260502042007 61 306 2.0 5.0 0.00 0.00 0.00 85 1015.9
20260502041507 62 315 0.0 1.0 0.00 0.00 0.00 84 1015.9
20260502041007 62 248 2.0 5.0 0.00 0.00 0.00 83 1015.8
20260502040507 63 225 2.0 5.0 0.00 0.00 0.00 83 1015.6
20260502040007 63 225 1.0 4.0 0.00 0.00 0.00 81 1015.6
20260502035508 63 225 0.0 4.0 0.00 0.00 0.00 81 1015.4
20260502035007 63 270 1.0 2.0 0.00 0.00 0.00 80 1015.2
20260502034507 64 0 1.0 2.0 0.00 0.00 0.00 79 1015.2
20260502034007 64 208 3.0 5.0 0.00 0.00 0.00 79 1015.2
20260502033507 64 308 3.0 6.0 0.00 0.00 0.00 77 1014.9
20260502033007 65 262 2.0 5.0 0.00 0.00 0.00 77 1014.9